GW3808 Weather Reports


time (UTC)temp
F
wind
direction
speed
knots
gust
knots
rain 1hr
in
rain 24hr
in
rain mn
in
humidity
%
barometer
mb
20260510093943 69 356 0.0 0.0 0.00 0.00 0.00 97 1009.1
20260510093443 69 325 0.0 0.0 0.00 0.00 0.00 97 1009.1
20260510092443 69 332 0.0 0.0 0.00 0.00 0.00 96 1009.1
20260510091943 69 320 0.0 0.0 0.00 0.00 0.00 96 1009.1
20260510090943 69 295 0.0 0.0 0.00 0.00 0.00 96 1009.1
20260510085943 69 314 0.0 0.0 0.00 0.00 0.00 96 1009.1
20260510084943 69 323 0.0 0.0 0.00 0.00 0.00 96 1009.1
20260510082943 70 312 0.0 0.0 0.00 0.00 0.00 97 1008.8
20260510082443 70 331 0.0 0.0 0.00 0.00 0.00 97 1008.8
20260510081443 70 317 0.0 0.0 0.00 0.00 0.00 97 1008.8
20260510080443 70 315 0.0 0.0 0.00 0.00 0.00 97 1008.8
20260510075443 70 316 0.0 0.0 0.00 0.00 0.00 96 1008.8
20260510074943 70 315 0.0 0.0 0.00 0.00 0.00 96 1008.8
20260510073943 71 315 0.0 0.0 0.00 0.00 0.00 95 1008.8
20260510073443 71 315 0.0 0.0 0.00 0.00 0.00 95 1008.8
20260510071943 71 316 0.0 0.0 0.00 0.00 0.00 94 1008.8
20260510071443 72 332 0.0 0.0 0.00 0.00 0.00 94 1008.8
20260510070443 72 319 0.0 0.0 0.00 0.00 0.00 94 1008.8
20260510065443 72 306 0.0 0.0 0.00 0.00 0.00 93 1008.8
20260510064943 73 343 0.0 0.0 0.00 0.00 0.00 93 1008.8
20260510063943 73 324 0.0 0.0 0.00 0.00 0.00 93 1008.8
20260510062443 73 318 0.0 0.0 0.00 0.00 0.00 92 1008.8
20260510061446 73 322 0.0 0.0 0.00 0.00 0.00 91 1008.8
20260510060943 73 324 0.0 0.0 0.00 0.00 0.00 91 1008.8
20260510060443 73 330 0.0 0.0 0.00 0.00 0.00 91 1008.8
20260510054943 73 318 0.0 0.0 0.00 0.00 0.00 91 1008.8
20260510053943 73 330 0.0 0.0 0.00 0.00 0.00 92 1008.8
20260510052943 72 316 0.0 0.0 0.00 0.00 0.00 91 1008.8
20260510052443 72 318 0.0 0.0 0.00 0.00 0.00 90 1008.8
20260510051443 73 323 0.0 0.0 0.00 0.00 0.00 90 1008.8
20260510050943 73 307 0.0 0.0 0.00 0.00 0.00 89 1008.8
20260510050443 73 319 0.0 0.0 0.00 0.00 0.00 88 1008.8
20260510045943 74 303 0.0 0.0 0.00 0.00 0.00 88 1008.8
20260510044943 74 315 0.0 0.0 0.00 0.00 0.00 87 1008.5
20260510044443 75 321 0.0 0.0 0.00 0.00 0.00 87 1008.5
20260510043943 75 315 0.0 0.0 0.00 0.00 0.00 86 1008.5
20260510043443 75 298 0.0 0.0 0.00 0.00 0.00 86 1008.5
20260510042443 74 321 0.0 0.0 0.00 0.00 0.00 87 1008.8
20260510040943 74 315 0.0 0.0 0.00 0.00 0.00 90 1008.5
20260510040443 74 333 0.0 0.0 0.00 0.00 0.00 92 1008.1
20260510035943 74 336 0.0 0.0 0.00 0.00 0.00 94 1008.1
20260510034943 74 305 0.0 0.0 0.00 0.00 0.00 94 1008.1
20260510033943 74 312 0.0 0.0 0.00 0.00 0.00 93 1007.8
20260510033443 74 313 0.0 0.0 0.00 0.00 0.00 93 1007.8
20260510032943 74 313 0.0 0.0 0.00 0.00 0.00 93 1007.8
20260510031943 74 307 0.0 0.0 0.00 0.00 0.00 93 1007.8
20260510030943 75 292 0.0 0.0 0.00 0.00 0.00 92 1007.5
20260510030443 75 314 0.0 0.0 0.00 0.00 0.00 92 1007.5
20260510025943 75 175 0.0 0.0 0.00 0.00 0.00 91 1007.8
20260510025443 74 26 0.0 0.0 0.00 0.00 0.00 92 1007.5
20260510024443 74 290 0.0 0.0 0.00 0.00 0.00 92 1007.5
20260510023943 74 325 0.0 0.0 0.00 0.00 0.00 92 1007.5
20260510022943 74 325 0.0 0.0 0.00 0.00 0.00 92 1007.5
20260510022443 74 325 0.0 0.0 0.00 0.00 0.00 93 1007.1
20260510021443 74 324 0.0 0.0 0.00 0.00 0.00 94 1007.1
20260510020443 74 334 0.0 0.0 0.00 0.00 0.00 95 1007.1
20260510015443 75 334 0.0 0.0 0.00 0.00 0.00 95 1007.1
20260510014443 74 339 0.0 0.0 0.00 0.00 0.00 97 1007.1
20260510013943 74 335 0.0 0.0 0.00 0.00 0.00 99 1006.8
20260510012943 73 331 0.0 0.0 0.00 0.00 0.00 99 1007.1
20260510011943 73 335 0.0 0.0 0.00 0.00 0.00 99 1006.8
20260510010943 73 326 0.0 0.0 0.00 0.00 0.00 99 1006.4
20260510005943 72 325 0.0 0.0 0.00 0.00 0.00 99 1006.4
20260510004943 71 309 0.0 0.0 0.00 0.00 0.00 99 1006.4
20260510003943 71 337 0.0 0.0 0.00 0.00 0.00 99 1006.4
20260510003443 71 294 0.0 0.0 0.00 0.00 0.00 99 1006.1
20260510002943 71 333 0.0 0.0 0.00 0.00 0.00 99 1006.1
20260510001943 70 332 0.0 0.0 0.00 0.00 0.00 99 1006.1
20260510001443 70 304 0.0 0.0 0.00 0.00 0.00 99 1006.1
20260509235943 72 333 0.0 0.0 0.00 0.00 0.00 99 1005.8
20260509234943 74 334 0.0 0.0 0.00 0.00 0.00 99 1005.8
20260509233943 73 336 0.0 0.0 0.00 0.00 0.00 99 1005.8
20260509233442 73 340 0.0 0.0 0.00 0.00 0.00 99 1005.8
20260509232943 72 320 0.0 0.0 0.00 0.00 0.00 99 1005.8
20260509231943 72 316 0.9 0.9 0.00 0.00 0.00 98 1005.8
20260509230943 71 154 0.9 0.9 0.00 0.00 0.00 96 1005.8
20260509230443 72 186 0.9 0.9 0.00 0.00 0.00 95 1005.8
20260509225443 71 294 0.9 0.9 0.00 0.00 0.00 86 1005.1
20260509224443 74 239 0.9 0.9 0.00 0.00 0.00 76 1005.8
20260509223943 78 72 1.7 1.7 0.00 0.00 0.00 70 1006.4
20260509223443 85 40 0.9 0.9 0.00 0.00 0.00 62 1006.4
20260509222943 87 48 0.9 0.9 0.00 0.00 0.00 57 1006.1
20260509222443 92 139 0.9 0.9 0.00 0.00 0.00 50 1006.1
20260509221443 91 49 0.9 0.9 0.00 0.00 0.00 52 1005.4
20260509220943 92 324 0.9 0.9 0.00 0.00 0.00 52 1005.4
20260509215943 92 66 0.9 0.9 0.00 0.00 0.00 50 1005.8
20260509215443 93 255 0.9 0.9 0.00 0.00 0.00 49 1005.4
20260509214943 94 293 0.9 0.9 0.00 0.00 0.00 48 1005.8
20260509213943 96 331 0.9 0.9 0.00 0.00 0.00 47 1005.8
20260509213442 94 292 0.0 0.0 0.00 0.00 0.00 50 1005.8
20260509212443 95 345 0.0 0.0 0.00 0.00 0.00 46 1005.8
20260509211442 95 319 0.0 0.0 0.00 0.00 0.00 46 1005.8
20260509210443 95 269 0.9 0.9 0.00 0.00 0.00 47 1005.8
20260509205942 94 256 0.9 0.9 0.00 0.00 0.00 50 1006.1
20260509204442 94 61 0.9 0.9 0.00 0.00 0.00 49 1006.1
20260509203443 94 296 0.0 0.0 0.00 0.00 0.00 53 1006.4
20260509202943 94 235 0.9 0.9 0.00 0.00 0.00 51 1006.8
20260509202443 93 330 0.0 0.0 0.00 0.00 0.00 52 1006.4
20260509201443 94 348 0.0 0.0 0.00 0.00 0.00 49 1006.8
20260509200943 94 331 0.0 0.0 0.00 0.00 0.00 50 1006.8
20260509195943 94 35 0.0 0.0 0.00 0.00 0.00 49 1006.8
20260509195443 94 309 0.0 0.0 0.00 0.00 0.00 50 1006.8
20260509194443 92 47 0.0 0.0 0.00 0.00 0.00 52 1007.1
20260509193442 91 261 0.0 0.0 0.00 0.00 0.00 53 1007.1
20260509191942 94 301 0.0 0.0 0.00 0.00 0.00 51 1007.5
20260509190943 92 334 0.0 0.0 0.00 0.00 0.00 58 1007.8
20260509190443 92 319 0.0 0.0 0.00 0.00 0.00 56 1007.8
20260509185443 93 309 0.0 0.0 0.00 0.00 0.00 54 1007.8
20260509183943 91 346 0.0 0.0 0.00 0.00 0.00 60 1007.8
20260509183443 90 338 0.0 0.0 0.00 0.00 0.00 63 1007.8
20260509182443 89 38 0.0 0.0 0.00 0.00 0.00 64 1007.8
20260509181942 89 343 0.0 0.0 0.00 0.00 0.00 67 1008.1
20260509180943 89 3 0.0 0.0 0.00 0.00 0.00 64 1008.5
20260509180443 90 45 0.0 0.0 0.00 0.00 0.00 63 1008.5
20260509175942 89 301 0.0 0.0 0.00 0.00 0.00 67 1008.1
20260509174942 89 339 0.0 0.0 0.00 0.00 0.00 67 1008.5
20260509174442 89 312 0.0 0.0 0.00 0.00 0.00 66 1008.5
20260509173442 86 55 0.0 0.0 0.00 0.00 0.00 69 1008.8
20260509172943 87 184 0.0 0.0 0.00 0.00 0.00 65 1008.8
20260509172443 88 22 0.0 0.0 0.00 0.00 0.00 65 1008.8
20260509171443 88 325 0.9 0.9 0.00 0.00 0.00 67 1008.8
20260509170443 87 251 0.9 0.9 0.00 0.00 0.00 66 1008.8
20260509165443 86 307 0.9 0.9 0.00 0.00 0.00 65 1008.8
20260509164443 85 4 0.9 0.9 0.00 0.00 0.00 65 1008.8
20260509162942 85 251 0.9 0.9 0.00 0.00 0.00 70 1009.1
20260509162443 84 301 0.9 0.9 0.00 0.00 0.00 70 1008.8
20260509161443 83 297 0.9 0.9 0.00 0.00 0.00 71 1008.8
20260509160942 82 320 0.9 0.9 0.00 0.00 0.00 74 1008.5
20260509155942 80 332 0.0 0.0 0.00 0.00 0.00 81 1008.8
20260509154943 78 59 0.0 0.0 0.00 0.00 0.00 90 1008.8
20260509154442 77 129 0.0 0.0 0.00 0.00 0.00 94 1008.5
20260509153443 76 333 0.0 0.0 0.00 0.00 0.00 98 1008.8
20260509152942 75 305 0.0 0.0 0.00 0.00 0.00 99 1008.8
20260509152442 75 283 0.0 0.0 0.00 0.00 0.00 99 1008.8
20260509150942 75 309 0.0 0.0 0.00 0.00 0.00 99 1009.5
20260509150443 74 316 0.0 0.0 0.00 0.00 0.00 99 1009.5
20260509145942 73 334 0.0 0.0 0.00 0.00 0.00 99 1009.5
20260509145442 73 325 0.0 0.0 0.00 0.00 0.00 99 1009.5
20260509144942 73 308 0.0 0.0 0.00 0.00 0.00 99 1009.5
20260509143943 73 254 0.0 0.0 0.00 0.00 0.00 99 1009.5
20260509143442 73 339 0.0 0.0 0.00 0.00 0.00 99 1009.5
20260509142943 73 316 0.0 0.0 0.00 0.00 0.00 99 1009.5
20260509141943 73 333 0.0 0.0 0.00 0.00 0.00 99 1009.5
20260509141442 73 310 0.0 0.0 0.00 0.00 0.00 99 1009.5
20260509140443 73 307 0.0 0.0 0.00 0.00 0.00 99 1009.5
20260509135943 73 308 0.0 0.0 0.00 0.00 0.00 99 1008.8
20260509134442 72 311 0.0 0.0 0.00 0.00 0.00 99 1008.5
20260509133442 72 78 0.0 0.0 0.00 0.00 0.00 99 1008.8
20260509131943 72 320 0.0 0.0 0.00 0.00 0.00 99 1008.1
20260509130942 72 308 0.0 0.0 0.00 0.00 0.00 99 1008.8
20260509125943 72 287 0.0 0.0 0.00 0.00 0.00 99 1008.5
20260509124942 72 313 0.0 0.0 0.00 0.00 0.00 99 1008.5
20260509123942 72 288 0.0 0.0 0.00 0.00 0.00 99 1008.5
20260509122942 72 307 0.0 0.0 0.00 0.00 0.00 99 1008.8
20260509122443 72 324 0.0 0.0 0.00 0.00 0.00 99 1008.8
20260509120943 72 341 0.0 0.0 0.00 0.00 0.00 99 1008.8
20260509120442 72 318 0.0 0.0 0.00 0.00 0.00 99 1009.1
20260509115443 72 38 0.0 0.0 0.00 0.00 0.00 99 1009.1
20260509114442 72 255 0.0 0.0 0.00 0.00 0.00 99 1008.8
20260509113442 72 321 0.0 0.0 0.00 0.00 0.00 99 1008.8
20260509112942 72 75 0.0 0.0 0.00 0.00 0.00 99 1008.5
20260509110942 72 249 0.0 0.0 0.00 0.00 0.00 99 1007.8
20260509110442 72 330 0.0 0.0 0.00 0.00 0.00 99 1007.8
20260509105943 72 327 0.0 0.0 0.00 0.00 0.00 99 1007.8
20260509105442 72 295 0.0 0.0 0.00 0.00 0.00 99 1008.1
20260509104442 72 49 0.0 0.0 0.00 0.00 0.00 99 1007.8
20260509103442 72 289 0.0 0.0 0.00 0.00 0.00 99 1008.1
20260509102942 72 68 0.0 0.0 0.00 0.00 0.00 99 1008.1
20260509101942 72 309 0.0 0.0 0.00 0.00 0.00 99 1008.1
20260509101442 72 8 0.0 0.0 0.00 0.00 0.00 99 1008.1
20260509095942 72 329 0.0 0.0 0.00 0.00 0.00 99 1007.8